Theta_e
320 320 324 326 329 326 328 324 323 325 326 330 328 333 336 338 339 346 341 341 339 340 339 340 339 339 338 336 335 334 333 333 334 335 336 337 336 332 331 331 333 331 331 333 330 330 329 329 330
318 321 325 327 329 330 328 324 322 325 329 326 328 333 333 339 339 340 341 340 339 338 339 341 341 340 339 336 336 336 334 335 335 334 335 335 334 332 331 330 329 329 329 334 330 328 328 328 328
317 322 327 328 328 328 326 324 324 327 325 326 330 333 335 341 340 340 341 340 339 337 338 339 339 339 339 338 338 337 335 333 333 332 330 331 331 329 331 328 326 327 331 333 330 328 327 327 329
322 324 325 326 326 325 325 323 326 327 325 325 326 330 339 338 339 338 340 340 340 338 338 340 339 337 338 339 338 337 335 331 332 331 329 329 328 328 328 326 326 326 329 331 332 327 327 324 329
322 324 324 325 325 324 325 323 325 326 327 326 325 327 332 328 321 329 340 339 340 340 338 339 338 337 338 338 338 337 334 330 331 330 329 328 327 326 326 325 325 326 326 326 331 327 325 325 327
321 323 322 323 323 323 324 324 324 325 325 326 326 326 329 324 318 319 337 340 339 340 339 338 336 337 339 338 337 337 333 331 330 329 329 328 327 325 326 325 325 327 327 326 327 326 325 326 327
323 321 320 321 321 320 321 321 321 322 324 325 323 325 332 324 316 313 332 338 339 339 339 338 337 335 335 337 336 335 333 332 331 330 328 326 326 325 325 325 325 324 327 325 326 326 324 327 326
321 321 318 320 319 320 321 318 320 322 322 319 320 324 325 329 314 314 320 333 338 338 339 338 337 336 335 335 334 335 334 333 333 331 329 326 325 325 324 325 325 324 326 326 324 325 324 326 326
320 319 319 319 320 319 318 316 316 315 317 317 318 320 322 314 314 316 317 316 323 332 338 338 338 338 337 337 338 337 335 334 334 333 331 327 326 327 327 326 326 325 324 326 325 324 324 327 326
318 319 317 318 317 317 317 315 314 313 314 314 314 315 315 313 313 313 314 317 316 315 316 326 337 338 338 338 337 337 337 335 335 334 334 330 328 327 327 327 325 324 324 325 325 324 323 325 328
318 318 316 314 314 313 313 313 312 312 313 314 314 313 314 311 310 310 310 310 310 309 309 310 314 319 329 336 337 337 336 335 335 335 334 333 331 328 328 327 326 324 323 324 326 325 323 325 327
312 315 314 314 311 311 312 311 311 311 311 312 309 310 309 308 308 308 307 307 307 306 306 307 308 308 308 311 323 332 335 336 336 335 335 333 332 329 328 328 327 325 325 324 326 327 326 325 326
310 311 310 310 309 309 308 308 308 308 309 309 308 307 307 307 308 307 306 306 306 306 306 305 306 307 307 308 309 312 317 324 331 333 332 332 333 331 329 329 328 327 325 325 325 326 326 326 326
310 309 309 308 307 307 306 307 305 309 307 307 308 308 307 307 307 307 306 306 305 305 305 305 305 305 305 306 307 307 309 313 317 320 328 331 332 332 331 329 328 327 326 325 325 326 327 327 325
308 308 309 308 307 306 305 307 307 308 307 306 306 306 306 306 306 305 304 304 304 305 305 305 305 305 305 306 306 306 307 308 309 313 315 320 327 326 330 329 328 327 326 325 324 325 326 326 326
307 307 312 307 306 306 304 312 310 305 305 305 305 305 305 305 305 305 304 304 304 304 305 305 305 305 305 305 306 306 307 307 308 310 312 314 317 323 326 323 325 326 326 325 323 323 325 325 325
310 314 313 309 304 304 305 309 310 305 304 305 305 306 306 306 306 305 304 304 304 304 305 305 305 305 305 305 306 306 306 307 308 309 311 313 315 318 321 324 324 321 325 325 324 324 324 325 325
316 311 310 308 306 305 305 307 308 309 308 308 307 307 306 306 305 305 304 304 304 304 305 305 305 304 304 304 305 307 308 308 308 309 311 312 313 315 317 320 322 323 323 323 324 324 324 324 324
305 306 308 309 305 303 306 307 308 309 308 308 308 306 305 304 304 304 304 304 304 304 305 304 305 306 306 306 307 308 309 310 310 310 310 310 312 312 313 317 319 321 321 323 323 322 323 323 323
306 308 313 308 303 302 306 306 308 308 308 305 305 304 304 305 304 304 304 304 304 303 302 301 302 303 305 306 306 306 306 306 305 306 307 309 311 312 313 314 316 317 318 321 320 321 322 323 322
306 307 308 306 305 306 304 311 316 308 304 304 304 305 304 305 305 305 304 303 302 301 300 300 300 301 302 303 303 303 303 302 303 303 303 304 304 305 308 310 312 315 317 318 318 320 321 322 321
307 302 302 304 307 319 304 321 314 313 308 305 305 304 304 304 304 304 303 303 302 301 300 299 299 299 299 299 300 301 303 303 302 302 303 303 304 304 305 305 306 309 312 315 316 318 320 320 321
306 302 303 303 306 303 310 311 315 308 309 309 307 305 305 305 305 304 303 302 301 301 300 299 299 299 299 300 300 300 301 301 301 301 301 301 302 302 303 303 303 305 306 309 313 316 319 319 317
302 303 303 303 307 316 308 312 317 314 310 307 306 306 306 305 305 303 302 302 302 301 300 299 299 298 298 299 300 300 301 301 301 301 301 301 302 301 302 302 302 302 304 307 309 313 316 317 317
303 305 327 327 326 326 304 306 313 313 308 306 305 304 305 305 303 303 303 302 302 300 299 298 298 298 299 300 300 300 299 299 299 299 299 299 300 300 301 302 302 302 302 303 306 309 312 315 316
304 303 316 323 322 318 300 314 312 306 304 306 306 304 304 303 303 303 302 302 300 298 298 298 298 300 300 299 299 299 298 298 298 298 297 298 298 299 299 300 301 301 302 303 303 306 308 310 314
304 303 300 309 297 306 313 312 309 309 307 305 304 304 304 303 303 303 302 301 299 298 297 298 300 300 300 298 297 296 295 295 295 295 295 295 295 295 295 296 297 299 300 302 304 305 307 307 310
301 300 308 310 315 321 322 317 316 313 305 302 303 304 304 303 302 302 302 300 298 297 298 300 301 299 297 296 294 294 293 293 293 293 293 293 294 295 295 295 295 297 299 300 302 304 306 308 309
302 303 302 303 306 314 318 318 313 319 310 307 303 303 302 303 303 302 301 298 297 297 301 301 299 296 295 293 292 292 292 292 292 292 292 292 293 293 294 295 295 295 298 299 300 301 303 306 308
301 304 303 309 314 304 303 308 310 306 304 302 304 303 303 303 302 301 299 297 297 301 301 297 296 294 293 292 291 291 291 291 291 291 291 292 292 292 292 293 294 294 296 297 297 298 300 303 307
Wind_Speed
12 11 8 6 5 5 10 4 3 5 4 3 1 6 8 9 8 4 5 4 5 5 14 21 22 20 18 16 14 12 12 11 10 11 12 12 11 11 10 9 10 8 8 11 13 9 10 13 13
9 10 7 4 6 9 6 6 8 4 4 3 2 4 5 5 8 7 6 7 4 5 12 17 21 20 19 17 16 12 12 10 9 10 10 11 11 11 11 10 9 9 9 11 13 12 11 12 15
8 6 4 4 6 10 6 3 5 2 2 3 3 3 3 5 7 4 6 4 2 6 10 14 17 18 18 17 17 15 12 11 11 11 11 10 9 10 10 9 9 9 12 14 13 13 13 13 16
4 6 4 7 12 8 6 2 1 6 4 0 3 5 6 5 2 4 4 3 3 7 10 12 16 19 18 18 17 16 13 12 12 14 14 14 13 10 9 10 12 13 13 12 15 14 14 17 17
6 3 8 7 12 9 4 2 3 6 2 4 2 7 2 5 2 3 2 3 3 6 8 10 16 19 18 19 19 17 14 14 14 16 18 16 15 15 14 12 13 14 14 16 15 16 15 17 18
5 4 7 10 11 5 4 4 6 9 10 6 6 9 2 7 1 3 2 2 2 4 6 9 13 18 16 16 18 17 16 16 16 15 18 18 17 17 16 16 16 15 15 15 15 18 20 20 21
9 6 11 10 8 7 5 1 9 10 12 10 2 6 4 7 1 3 2 1 2 3 6 8 9 16 18 18 18 18 18 19 19 18 17 19 20 18 19 19 18 18 18 18 16 16 21 19 23
5 4 5 6 5 7 3 3 3 5 8 4 1 5 8 10 2 1 1 1 2 3 5 7 9 10 13 15 19 21 21 21 22 22 20 20 20 19 20 19 19 21 19 20 20 18 22 22 23
3 6 7 7 6 1 2 3 3 2 8 6 5 8 6 4 1 1 3 3 2 2 4 5 8 10 12 15 16 19 22 23 24 24 23 22 22 19 20 21 20 22 22 20 22 22 25 22 22
7 6 4 6 3 3 1 5 8 6 8 11 12 12 5 5 5 6 6 6 5 4 3 4 7 9 10 12 13 16 18 21 25 26 23 24 23 21 21 23 25 24 24 22 23 24 24 25 20
4 6 7 1 4 4 7 9 10 9 10 14 14 9 12 8 9 8 9 8 7 7 8 7 7 7 9 11 13 16 17 19 22 24 27 26 25 24 23 24 26 27 27 25 24 27 26 25 25
5 6 5 2 1 3 6 7 10 15 18 12 7 8 7 10 10 10 10 10 10 10 11 11 12 12 11 10 11 14 18 20 20 19 22 28 27 27 27 26 24 28 27 30 26 27 27 27 29
9 7 4 5 6 9 10 15 15 20 19 15 13 11 12 11 13 12 11 12 13 14 14 14 14 14 13 13 13 14 16 16 16 20 27 27 30 29 29 27 28 28 30 29 29 27 30 30 31
3 7 10 6 6 7 9 12 3 6 2 8 13 15 15 12 11 10 11 14 16 16 14 11 11 13 14 14 15 15 17 17 18 18 18 20 24 27 26 30 31 30 29 32 32 31 30 32 33
4 7 7 7 3 3 8 13 16 15 9 9 10 12 11 10 11 12 14 15 13 10 9 8 9 9 11 12 14 14 16 17 19 20 20 20 20 28 22 32 37 32 34 31 35 33 33 29 31
4 4 4 6 2 2 4 11 7 4 6 10 9 9 10 12 14 17 15 13 10 8 8 8 9 11 12 13 13 14 15 16 17 18 20 22 23 23 24 30 26 28 36 42 39 38 36 32 31
5 6 6 2 4 5 3 14 3 2 7 12 13 15 15 16 17 15 14 11 9 7 6 7 8 10 12 13 14 15 16 16 18 18 19 19 20 23 24 23 23 30 30 30 38 38 37 31 31
4 6 3 7 5 6 14 26 25 17 16 19 17 15 15 14 12 10 11 9 7 5 5 7 8 10 11 13 13 14 15 16 17 18 19 19 20 21 23 23 23 24 28 34 31 29 35 37 34
5 6 11 11 6 7 10 20 26 18 19 19 15 10 8 8 10 11 10 6 5 4 4 6 9 12 13 13 13 15 17 18 19 19 20 20 20 21 22 22 22 23 26 27 32 36 28 38 34
4 8 6 8 3 4 12 24 27 21 9 5 5 4 8 10 9 9 10 7 6 4 3 8 11 13 15 15 15 16 17 17 18 18 20 21 23 23 23 23 24 24 24 26 30 30 28 24 32
7 7 6 5 10 8 13 11 8 3 4 5 5 4 7 9 9 8 8 8 5 2 8 11 11 11 14 17 18 19 21 23 24 25 28 30 29 28 28 27 25 24 25 25 28 31 30 27 26
7 3 1 6 8 3 6 6 10 4 6 7 8 9 9 8 6 5 5 8 6 4 10 13 14 14 18 20 22 24 26 27 29 30 30 29 29 31 30 30 30 30 28 28 28 29 32 31 26
2 1 3 5 3 4 2 3 7 2 4 7 11 11 11 9 8 7 6 8 9 10 14 16 18 19 21 22 23 25 27 29 29 29 31 33 35 36 35 33 33 32 33 34 32 29 31 33 28
1 4 4 1 2 3 4 3 7 4 3 5 5 10 11 10 8 7 7 7 10 13 18 19 20 21 22 24 26 28 30 31 30 29 30 29 29 31 33 36 36 37 38 37 36 34 32 32 28
3 5 3 3 3 2 5 3 11 9 3 2 5 5 6 7 7 6 7 6 15 17 18 19 21 24 25 27 28 28 31 32 33 32 30 28 28 28 29 31 33 35 38 38 37 37 35 33 29
5 2 3 6 4 4 2 7 4 1 3 5 6 5 4 7 8 7 7 13 17 18 20 20 23 26 27 27 27 28 30 30 29 29 28 28 27 26 26 28 30 32 34 36 38 38 38 35 34
4 4 3 2 2 3 5 6 13 9 11 10 9 8 9 6 5 8 9 16 17 19 20 22 24 26 26 27 28 28 27 29 29 30 29 30 31 32 34 32 33 35 37 36 35 36 37 37 35
3 1 2 2 4 6 4 4 10 5 1 4 4 1 1 1 5 7 11 17 18 20 22 23 24 25 26 28 26 26 26 28 29 30 30 31 31 29 29 31 32 32 34 36 34 33 33 35 34
3 3 4 3 3 4 8 5 1 4 7 3 4 5 5 11 12 11 12 16 17 20 22 23 24 26 26 25 26 26 27 27 28 29 30 31 31 31 31 29 28 30 27 31 29 29 30 31 32
1 2 4 4 3 4 3 11 11 7 5 3 7 7 10 11 13 13 11 15 17 20 22 23 23 25 25 25 26 27 27 28 28 28 30 30 30 30 30 29 29 29 30 32 33 33 30 31 31
Wind_Direction
318 314 304 269 252 229 257 233 278 208 204 75 310 272 359 29 357 23 94 86 13 168 175 183 187 187 189 192 194 189 182 182 180 183 185 186 192 192 192 188 182 174 183 185 166 172 175 165 163
320 319 253 280 250 242 251 173 214 207 39 299 241 211 228 113 63 104 143 7 22 154 174 183 193 194 193 194 194 196 192 190 189 192 190 189 191 193 191 188 194 182 198 192 175 178 180 184 174
302 272 264 238 246 250 284 160 194 172 254 225 215 279 27 74 68 40 12 1 81 156 174 187 206 202 202 201 203 203 206 200 199 191 191 200 199 205 197 201 201 192 200 183 176 190 187 192 180
269 204 231 249 245 249 280 204 164 224 171 274 328 230 110 63 38 4 10 98 131 166 176 193 206 210 209 209 211 209 211 210 205 197 194 196 203 219 225 214 205 205 203 190 180 188 196 188 186
233 265 244 243 256 265 237 263 235 242 244 230 300 239 141 97 75 27 48 111 146 168 185 200 211 206 211 212 212 215 220 220 211 203 203 206 205 206 215 223 216 216 205 215 195 197 202 196 200
204 276 235 243 250 213 248 237 256 247 252 249 256 259 242 121 73 23 42 143 169 183 193 200 214 206 210 219 223 223 229 225 220 214 209 210 206 211 214 214 206 221 206 216 215 205 207 198 204
255 230 256 275 272 259 245 71 245 254 255 249 46 263 90 168 70 14 34 131 166 191 201 204 207 216 218 221 229 236 234 228 225 222 219 216 214 224 215 217 208 220 208 210 218 208 209 208 208
268 266 256 227 252 249 105 247 307 258 263 34 293 248 253 119 70 28 103 108 187 199 211 211 214 216 224 231 237 236 235 232 228 226 226 220 220 223 220 222 218 219 216 210 210 211 217 215 218
266 247 254 251 242 88 116 263 146 326 266 236 235 278 46 73 56 215 202 206 198 207 217 223 223 224 233 237 242 242 238 238 237 235 232 226 220 223 223 222 220 219 226 218 213 214 219 220 220
231 254 297 20 323 273 247 271 312 277 249 249 247 245 226 249 244 257 252 250 227 239 253 254 242 240 236 239 245 250 243 236 234 232 229 225 225 226 223 222 226 222 223 224 223 216 224 224 220
183 253 22 280 315 310 291 279 260 267 268 258 262 266 221 254 258 257 256 252 258 267 266 262 254 259 256 252 253 253 253 248 239 237 232 228 224 227 229 221 222 222 221 223 224 220 221 222 221
252 248 271 327 349 284 274 308 266 254 252 294 269 286 256 254 262 262 262 260 264 270 273 269 262 259 260 257 254 261 258 254 251 247 241 236 229 220 220 220 218 213 216 221 218 213 216 219 220
244 277 269 268 265 269 276 265 267 270 265 262 260 245 249 251 264 256 254 260 272 277 281 278 264 258 259 259 260 261 263 264 270 268 260 249 235 224 220 221 218 213 213 212 216 218 216 215 218
0 285 276 273 270 268 274 274 293 252 206 248 239 238 244 244 244 237 249 266 273 278 278 281 273 263 262 261 261 263 265 267 265 264 265 263 253 243 232 219 218 223 218 213 213 216 220 216 214
300 294 270 233 262 269 301 271 227 250 210 239 222 231 240 235 227 238 274 273 271 261 272 283 283 275 268 270 271 269 266 264 262 263 262 259 260 255 247 229 224 225 219 219 210 215 223 226 214
262 257 274 117 282 127 293 279 180 175 211 245 243 241 239 229 233 255 267 255 245 251 267 280 283 280 275 269 270 269 267 265 263 261 259 257 254 249 246 252 248 234 225 214 218 212 218 219 219
197 291 270 277 47 322 280 291 271 126 240 257 259 260 256 251 253 264 250 228 230 244 263 289 298 293 284 273 267 265 263 261 261 263 264 261 259 257 258 246 245 241 238 234 217 214 214 210 208
323 292 274 285 36 313 284 273 281 279 274 275 273 267 266 260 251 227 200 207 220 233 270 288 294 292 287 275 267 264 262 261 260 258 257 258 258 255 250 253 247 242 236 236 240 230 213 211 205
298 282 282 292 32 308 275 284 287 287 282 278 273 260 237 219 189 180 179 173 177 220 255 304 311 301 289 280 270 267 260 257 254 252 254 254 252 253 253 249 244 243 243 234 234 234 239 211 206
260 288 289 290 15 301 300 293 284 288 264 267 279 195 175 178 181 175 175 170 168 138 6 340 328 312 296 283 277 273 271 274 272 266 259 252 251 247 246 243 242 243 241 238 239 235 230 237 193
252 255 295 282 319 265 308 272 279 179 210 232 217 218 183 180 179 178 183 186 168 36 354 347 329 320 298 286 282 276 271 268 262 260 260 255 253 248 243 242 242 241 239 239 242 230 229 230 229
277 46 281 297 337 302 14 287 293 265 244 204 204 204 205 201 208 199 200 212 214 324 340 332 322 308 294 285 278 271 267 266 263 265 263 259 252 249 245 243 241 241 243 243 237 236 229 228 229
11 347 310 310 296 323 176 228 276 166 228 217 206 209 208 214 212 217 234 256 274 297 317 315 307 299 293 288 281 276 271 268 269 267 265 261 257 251 248 244 242 241 240 241 240 232 229 226 223
61 276 226 244 168 242 144 226 286 245 145 156 169 202 213 211 222 228 256 289 308 311 310 305 301 295 291 286 282 279 278 278 277 274 270 267 263 257 252 247 244 242 238 236 237 238 231 228 223
244 280 276 249 216 274 146 212 250 282 169 193 168 172 213 213 216 252 284 295 314 315 306 304 301 296 292 289 287 285 283 282 280 277 274 271 267 262 259 253 249 246 242 239 234 233 235 229 221
187 297 298 289 287 349 163 240 243 337 346 257 237 241 251 230 234 265 273 313 318 308 305 305 302 299 297 296 294 291 288 285 284 282 278 277 276 274 269 262 257 249 247 241 235 233 231 232 228
133 204 55 293 143 271 233 263 268 275 230 242 231 247 246 239 237 257 298 316 315 309 310 308 304 300 300 299 293 289 287 283 280 279 276 270 265 265 267 269 268 260 250 244 237 235 229 228 228
283 31 238 172 282 273 232 262 261 263 86 122 151 184 205 317 306 274 311 319 315 312 310 306 306 307 303 299 296 292 289 285 282 280 276 273 270 268 261 256 257 259 251 246 236 235 234 228 228
159 227 221 285 241 274 298 267 16 24 21 25 64 358 343 321 317 304 313 312 312 312 311 314 313 307 303 303 300 295 292 291 286 281 278 274 270 264 263 257 250 254 256 242 240 239 237 237 230
55 297 241 261 213 254 301 265 307 60 72 8 300 291 306 315 312 314 309 314 315 316 318 317 309 308 306 306 304 301 300 295 289 283 279 275 270 265 262 256 251 249 247 242 242 246 246 241 238